www.pogodaiklimat.ru

Погода и климат >> Архив погоды >> Непал >> Биратнагар


ПОГОДА в Биратнагаре

  • Прогноз погоды в Биратнагаре
  • Монитор погоды в Биратнагаре

АРХИВ ПОГОДЫ в Биратнагаре

Время (UTC), дата Ветер
(напр.,м/с)
 
Видим.   Явления Облачность Т
(С)
Тd
(С)
f
(%)
Тe
(С)
Тes
(С)
Комфортность P
(гПа)
Po
(гПа)
Тmin
(С)
Tmax
(С)
R
(мм)
R24
(мм)
S
(см)
00 17.07 штиль 0 8000 м 8/6 600 м
[Cu med, cong Ac und]
+25.8 +25.4 98 +38 +38 очень
душно
1001.6 993.4
03 17.07 штиль 0 10 км 4/4 600 м
[Cu med, cong]
+29.9 +26.1 80 +45 +54 опасность
перегрева
1002.9 994.7 +25.5
06 17.07 штиль 0 10 км 5/5 600 м
[Cu med, cong]
+33.6 +26.0 65 +50 +64 опасность
перегрева
1001.9 993.7 +24.1
09 17.07 Ю 1 10 км 5/3 600 м
[Cu med, cong]
+34.0 +26.9 67 +52 +61 опасность
перегрева
999.7 991.5
12 17.07 Ю 1 10 км 5/3 600 м
[Cu med, cong]
+32.4 +26.7 72 +50 +50 опасность
перегрева
998.7 990.5 +35.5
00 18.07 штиль 0 8000 м 3 балла +26.3 +25.9 98 +39 +39 очень
душно
1001.6 993.4
03 18.07 В 1 10 км 3 балла +30.7 +26.9 80 +48 +57 опасность
перегрева
1001.8 993.6 +26.4 1
06 18.07 В 2 10 км 4/4 600 м
[Cu med, cong]
+34.2 +28.3 71 +55 +69 опасность
перегрева
1003.0 994.8
09 18.07 Ю 3 10 км 4/3 600 м
[Cu med, cong]
+35.6 +27.9 65 +56 +63 опасность
перегрева
999.8 991.6
12 18.07 В 2 10 км 5/4 600 м
[Cb calv Ac lent]
+30.6 +27.4 83 +49 +49 опасность
перегрева
998.8 990.6 +36.2
00 19.07 СЗ 1 10 км 5/0
[Ac und Ci fib]
+26.2 +25.2 94 +38 +38 очень
душно
1002.3 994.1
03 19.07 В 1 10 км 5/0
[Ac und]
+30.6 +26.9 81 +48 +57 опасность
перегрева
1003.4 995.2 +26.0
06 19.07 В 4 10 км 5/5 600 м
[Cu med, cong]
+33.8 +28.0 72 +55 +62 опасность
перегрева
1003.7 995.5
09 19.07 Ю 1 7000 м 4/3 600 м
[Cu med, cong]
+35.2 +28.2 67 +56 +66 опасность
перегрева
1000.7 992.5
12 19.07 В 2 5000 м мгла {туман} 4/4 600 м
[Cu med, cong]
+33.8 +28.3 73 +55 +56 опасность
перегрева
999.6 991.4 +36.2
00 20.07 штиль 0 6000 м 4/0
[Ac und Ci fib]
+26.9 +26.2 96 +41 +41 опасность
перегрева
1003.6 995.9
03 20.07 В 1 6000 м 5/5 600 м
[Cu med, cong]
+29.9 +26.4 82 +46 +53 опасность
перегрева
1005.3 997.1 +27.0
06 20.07 В 3 10 км 5/5 600 м
[Cu med, cong]
+33.4 +27.5 71 +53 +62 опасность
перегрева
1004.9 996.7
09 20.07 СВ 3 10 км 4/4 600 м
[Cu med, cong]
+35.0 +28.3 68 +56 +63 опасность
перегрева
1002.1 993.9
03 21.07 В 2 8000 м 8/6 600 м
[Sc diur, vesp Ac und]
+29.5 +26.2 82 +45 +48 опасность
перегрева
1004.4 996.2 +26.9 2
06 21.07 СВ 3 10 км 8/5 600 м
[Sc diur, vesp As trans]
+31.6 +27.3 78 +50 +56 опасность
перегрева
1004.9 996.7
09 21.07 В 2 10 км 4/4 600 м
[Cu med, cong]
+34.2 +27.8 69 +54 +62 опасность
перегрева
1001.5 993.3
12 21.07 штиль 0 7000 м 4/4 600 м
[Cu med, cong]
+32.8 +28.4 78 +55 +55 опасность
перегрева
1000.1 991.9 +34.6
00 22.07 В 1 4000 м 9/8 600 м
[Cu hum As trans]
+26.8 +26.2 97 +41 +41 опасность
перегрева
1001.3 993.1
03 22.07 В 2 4000 м гроза без осадков {туман} 10/9 300 м
[Sc diur, vesp As trans]
+27.9 +26.6 93 +43 +44 опасность
перегрева
1002.4 994.2 +26.9 3
06 22.07 В 1 6000 м 9/8 300 м
[Sc diur, vesp As trans]
+27.8 +26.4 92 +42 +46 опасность
перегрева
1002.6 994.4
09 22.07 В 2 10 км 6/5 600 м
[Cu med, cong Ac und]
+29.8 +26.7 83 +46 +52 опасность
перегрева
1001.1 992.9
12 22.07 В 3 7000 м 9/8 600 м
[Frnb As trans]
+29.4 +26.7 85 +45 +46 опасность
перегрева
999.9 991.7 +30.0 12
18 22.07 СЗ 2 н/о н/о +33.8 +18.6 41 +39 +39 очень
душно
995.6 961.6 +41.5
03 23.07 В 2 1600 м дымка {туман} 9/8 300 м
[Sc diur, vesp As trans]
+27.4 +26.7 96 +42 +44 опасность
перегрева
1001.8 993.6 +26.7 12
06 23.07 З 2 1000 м гроза, ливневой дождь {туман} 10 баллов +27.2 +26.8 98 +42 +42 опасность
перегрева
1001.5 993.3
09 23.07 С 1 8000 м 9/8 300 м
[St As trans]
+27.4 +26.4 94 +42 +44 опасность
перегрева
999.4 991.2
12 23.07 Ю 2 8000 м 8/5 600 м
[Cb calv Ac lent]
+29.4 +27.3 88 +47 +47 опасность
перегрева
998.2 990.0 +30.4 18

 

Местоположение метеостанции Биратнагар (Непал): широта 26.48 долгота 87.26 высота над уровнем моря 72 м.

В архиве по умолчанию представлена погода в Биратнагаре за последнюю неделю. Архивные данные за месяц целиком и за предыдущие месяцы, начиная с января 2011 года, Вы можете получить, выбрав интересующий диапазон дат из раскрывающегося списка и нажав кнопку "Ввод!".


*Определитесь, кто Вы:
робот инопланетянин человек

Внимание! Время в таблицах - всемирное. Для получения местного времени необходимо прибавить поправку, которая равна 5.5 ч.

Смотрите также архив погоды в соседних городах и на ближайших метеорологических станциях:

Погода в Дханкуте (Непал) (56 км)
Погода в Тапледжунге (Непал) (105 км)
Погода в Силигури (Западная Бенгалия, Индия) (109 км)
Погода в Окхалдхунге (Непал) (118 км)
Погода в Дарджилинге (Индия) (119 км)
Погода в Тетулии (Бангладеш) (135 км)
Погода в Димле (Бангладеш) (136 км)
Погода в Пурнеа (Бихар, Индия) (136 км)
Погода в Калимпонге (Индия) (137 км)
Погода в Бхагалпуре (Бихар, Индия) (142 км)

Пояснения к столбцам:

Ветер - указаны скорость ветра в м/с - средняя за 10 мин, порывы в срок и между сроками (в фигурных скобках) и направление, откуда дует ветер: С - северный, СВ - северо-восточный, В - восточный, ЮВ - юго-восточный, Ю - южный, ЮЗ - юго-западный, З - западный, СЗ - северо-западный.
Видимость - горизонтальная дальность видимости в метрах или километрах. При видимости от 1 до 10 км при отсутствии осадков обычно наблюдается дымка, при ухудшении видимости до 1 км и менее - туман. В сухую погоду видимость может ухудшаться дымом, пылью или мглою.
Явления - указаны атмосферные явления, наблюдавшиеся в срок или в последний час перед сроком; фигурными скобками обозначены явления, наблюдавшиеся между сроками (за 1-3 часа до срока); квадратными скобками обозначены град или гололедные отложения с указанием их диаметра в мм.
Облачность - указаны через наклонную черту общая и нижняя облачность в баллах и высота нижней границы облаков в метрах; квадратными скобками обозначены формы облаков: Ci - перистые, Cs - перисто-слоистые, Cc - перисто-кучевые, Ac - высококучевые, As - высокослоистые, Sc - слоисто-кучевые, Ns - слоисто-дождевые, Cu - кучевые, Cb - кучево-дождевые. Подробнее классификацию облаков см. в Атласе облаков (PDF).
T - Температура воздуха - температура, измеренная на высоте 2 м над землей.
Td - Температура точки росы - температура, при понижении до которой содержащийся в воздухе водяной пар достигнет насыщения.
f - Относительная влажность воздуха - влажноcть воздуха, измеренная на высоте 2 м над землей.
Te - Эффективная температура - температура, которую ощущает одетый по сезону человек в тени. Характеристика душности погоды. При расчете учитывается влияние влажности воздуха и скорости ветра на теплоощущения человека.
Tes - Эффективная температура на солнце - температура, которую ощущает человек, с поправкой на солнечный нагрев. Характеристика знойности погоды. Зависит от высоты солнца над горизонтом, облачности и скорости ветра. Ночью, в пасмурную погоду, а также при ветре 12 м/с и более поправка равна нулю.
P - Атмосферное давление - приведенное к уровню моря атмосферное давление.
Po - Атмосферное давление - измеренное на уровне метеостанции атмосферное давление.
Tmin - Минимальная температура - минимум температуры воздуха на высоте 2 м над землей.
Tmax - Максимальная температура - максимум температуры воздуха на высоте 2 м над землей.
R - Количество осадков - Количество выпавших осадков за период времени, мм. При наведении курсора мыши на число - период времени, за который выпало указанное количество осадков.
R24 - Количество осадков - Количество выпавших осадков за 24 часа, мм.
S - Снежный покров - Высота снежного покрова, см. При наведении курсора мыши на число - состояние снежного покрова и степень покрытия местности в баллах.